RH
58 41 49 60 87 88 82 74 47 31 25 21 16 14 16 16 13 12 12 12 12 13 13 13 12 11 11 11 11 11 11 12 16 25 39 54 71 83 84 65 59 96 73
48 51 68 64 83 82 74 61 36 25 21 16 15 17 16 13 12 14 16 17 17 16 14 14 13 13 13 14 13 13 13 12 11 14 22 43 56 69 80 85 87 86 80
62 88 88 66 80 75 71 52 28 23 18 16 16 15 12 12 14 15 14 11 10 10 10 10 10 9 8 8 8 10 12 13 12 11 13 69 90 73 68 74 75 77 86
75 96 92 64 88 69 60 36 25 20 17 16 16 13 13 15 14 11 11 15 18 18 18 19 19 19 18 17 15 12 9 11 14 14 16 37 77 48 52 60 67 66 65
87 94 90 77 92 59 50 28 23 19 17 17 14 14 15 14 10 15 18 18 18 19 19 20 21 21 22 21 20 18 15 12 11 14 17 19 51 58 35 36 56 71 70
96 95 59 81 68 57 37 26 21 19 18 16 14 14 14 10 17 19 19 20 20 20 22 22 23 23 24 24 23 22 20 17 13 13 17 24 55 35 27 24 25 31 42
94 92 79 91 65 42 31 25 22 20 17 14 14 14 11 16 19 20 21 22 24 24 24 24 24 24 24 25 25 25 24 22 20 17 16 19 49 26 21 17 19 22 22
90 96 92 88 61 36 30 25 23 20 17 15 14 12 13 20 20 21 23 25 25 24 23 23 23 23 24 24 24 25 24 24 23 24 24 60 23 23 22 16 18 20 21
93 100 92 74 53 36 31 27 24 21 17 15 14 11 18 21 21 23 24 24 24 24 24 24 24 24 23 24 24 24 25 24 23 23 54 76 20 23 16 16 18 19 20
96 100 90 75 45 37 32 30 26 22 18 15 14 13 23 22 23 26 24 23 24 26 25 25 24 24 24 24 25 26 26 25 31 37 76 78 78 35 23 21 21 67 64
86 98 78 84 63 49 33 33 31 24 18 16 14 16 23 24 26 26 24 24 25 26 26 24 23 22 23 24 26 27 27 29 39 71 87 94 96 92 88 70 82 96 92
84 81 79 67 42 41 34 34 33 25 19 18 14 19 25 25 27 25 25 25 26 25 23 22 21 21 23 24 27 28 29 38 41 78 62 85 94 99 89 91 97 97 91
95 89 81 58 39 36 34 35 32 24 19 18 15 22 25 26 27 24 24 26 26 23 23 22 21 22 23 25 30 30 35 39 65 83 50 51 97 95 97 92 96 86 99
87 99 88 55 41 38 36 38 33 24 20 18 17 24 24 25 26 24 23 28 24 22 23 22 22 22 23 26 32 37 39 51 75 86 44 45 76 98 94 94 97 98 94
95 84 86 56 44 40 39 40 35 25 23 20 20 24 24 25 26 24 24 26 23 22 22 22 21 22 24 29 32 33 37 51 50 72 47 42 44 68 97 98 97 98 98
98 80 72 56 47 45 42 43 40 29 25 22 21 24 25 25 25 24 24 24 22 22 21 22 22 23 25 30 33 34 38 34 32 36 46 39 40 43 45 84 80 99 98
92 79 75 61 48 50 49 51 48 40 28 24 22 24 27 25 24 24 25 23 22 22 22 22 23 23 25 29 37 38 49 44 42 33 31 33 33 27 27 32 36 41 90
85 93 81 69 50 54 55 57 56 50 35 26 23 25 28 25 24 24 24 22 22 22 22 23 24 24 25 30 41 46 46 44 49 43 35 38 36 41 36 28 19 22 28
75 99 91 72 58 57 63 65 65 60 43 28 23 23 31 25 25 25 24 22 23 23 23 23 24 23 24 29 37 47 49 48 41 44 43 43 42 42 41 38 35 28 22
69 87 96 81 70 64 69 72 72 70 53 32 26 21 30 27 25 25 25 23 23 23 24 23 23 22 23 28 35 48 53 58 44 42 46 42 37 33 38 37 35 33 33
84 78 94 90 82 73 72 75 76 72 60 34 28 25 29 28 26 26 25 24 24 24 24 23 23 23 23 26 31 40 48 52 51 37 46 43 42 31 34 35 36 39 37
66 80 90 93 89 84 77 74 73 70 64 39 31 27 31 28 27 26 25 25 24 25 25 24 23 23 22 22 28 39 54 62 54 40 41 43 34 29 30 27 30 36 36
63 69 79 91 94 90 85 80 78 74 67 45 34 29 31 28 28 27 26 26 26 27 27 26 24 23 22 22 22 32 40 40 38 40 39 38 29 29 29 28 28 36 37
34 69 67 74 87 91 89 83 81 78 70 56 35 30 32 30 29 28 27 27 27 29 29 28 27 26 25 24 24 23 24 25 48 43 40 36 29 29 30 30 31 35 39
32 39 58 82 90 93 84 88 85 83 75 62 38 32 35 32 30 29 29 28 29 30 31 31 31 31 30 29 28 27 27 27 27 41 41 47 47 35 38 35 35 37 40
35 35 57 67 96 97 89 91 88 84 79 66 39 34 37 33 32 31 31 30 31 32 34 34 35 35 35 35 35 35 35 40 39 44 54 59 50 50 46 41 42 46 44
Wind_Speed
22 25 22 20 17 17 13 8 5 3 2 2 2 3 4 4 4 4 4 5 5 5 5 5 4 4 3 3 4 5 5 4 3 2 1 2 2 3 3 4 4 3 2
27 26 22 20 19 16 12 8 6 4 3 3 4 4 4 5 5 6 7 7 7 6 6 6 5 5 5 4 4 4 4 4 4 3 3 5 4 2 1 0 0 2 3
28 26 24 20 19 16 12 8 7 5 4 5 4 4 5 6 6 7 7 7 7 7 8 7 7 7 6 6 5 5 4 4 4 3 2 6 5 1 2 3 3 3 2
27 25 24 22 20 16 12 9 7 6 5 5 5 5 6 7 7 7 8 9 9 9 9 9 9 8 8 8 8 7 5 5 4 4 3 3 4 4 5 4 5 6 6
26 24 24 23 19 15 12 10 7 6 6 5 5 7 7 7 8 9 9 9 9 9 9 9 8 8 8 8 7 7 7 5 4 3 2 1 3 4 5 5 6 7 7
25 23 25 23 17 15 13 10 8 7 7 6 6 7 8 8 8 9 9 9 9 9 9 8 8 8 8 7 7 7 7 6 6 4 2 1 3 3 5 5 5 7 8
25 22 24 23 16 15 13 10 8 8 7 6 7 8 8 8 9 9 9 9 9 9 9 8 8 7 7 7 7 7 6 6 6 5 3 2 2 4 7 6 4 4 4
24 23 24 21 17 15 13 11 9 8 8 7 8 8 8 8 8 8 9 9 8 8 8 8 7 7 7 7 6 6 6 6 6 5 5 5 3 5 7 5 3 2 3
24 23 23 20 18 15 13 11 9 9 8 8 8 8 8 8 8 8 8 8 8 7 7 7 7 7 7 7 7 7 7 6 5 5 7 6 6 6 5 4 3 2 2
25 23 24 20 19 17 15 11 9 9 8 9 8 8 8 7 7 7 7 7 7 7 8 7 7 7 6 7 7 7 7 7 7 8 9 12 16 11 9 7 6 7 4
28 27 24 21 19 17 16 13 10 9 9 9 8 8 8 7 6 6 6 6 7 7 8 8 7 7 7 8 8 8 8 8 8 9 8 16 12 14 13 12 11 9 9
31 31 25 22 21 19 17 14 11 10 10 9 8 8 8 7 6 5 5 6 6 7 8 8 8 8 8 8 8 9 9 8 8 9 9 13 8 8 7 8 7 9 15
30 30 27 24 22 20 18 15 13 12 11 9 9 9 8 6 5 4 4 5 6 7 7 8 8 8 7 7 8 8 9 8 8 9 8 7 12 11 9 8 8 9 10
31 32 28 26 24 21 18 15 13 12 11 10 9 9 8 6 5 4 4 4 5 5 7 8 8 7 7 8 8 8 9 9 8 8 6 6 9 11 7 8 8 10 7
32 33 30 28 25 21 18 16 13 13 12 10 9 8 8 6 5 4 3 4 4 5 7 7 7 7 7 7 8 8 9 9 9 8 7 7 6 8 9 7 9 9 10
29 33 30 28 26 23 20 17 14 13 12 10 9 8 8 6 5 4 3 3 4 5 6 7 7 7 6 7 7 7 8 8 9 8 8 8 7 6 6 5 8 10 10
30 31 31 28 26 23 21 18 15 13 12 11 10 9 8 7 6 4 3 3 4 5 6 6 7 7 6 6 6 7 7 7 8 8 8 7 7 7 7 6 6 6 9
29 31 31 30 29 25 23 19 16 14 13 12 11 9 9 7 6 5 4 3 4 5 5 6 7 7 6 5 6 6 6 7 8 8 9 9 9 9 9 8 7 5 4
28 31 33 31 29 27 25 22 18 16 14 13 11 10 10 8 7 6 5 4 4 5 5 5 6 6 6 5 5 5 5 6 6 7 7 8 9 9 9 10 8 7 5
27 31 33 32 30 29 27 25 22 18 17 16 14 12 11 10 8 7 6 5 4 5 4 5 5 6 6 5 4 4 3 3 4 4 4 6 8 10 8 9 9 7 6
29 32 36 35 33 32 31 28 25 22 20 18 16 14 13 11 10 8 7 6 5 5 4 4 5 6 6 5 4 2 1 1 2 3 2 4 5 8 7 7 8 7 7
31 34 37 37 36 34 32 29 27 25 21 19 17 16 15 13 11 10 8 7 6 5 4 4 4 5 5 5 4 4 2 1 3 1 2 3 5 7 7 8 7 6 6
30 33 37 40 39 35 32 31 29 26 23 22 21 19 17 15 14 12 10 9 7 6 5 4 4 4 4 5 5 4 1 1 1 1 2 3 8 6 7 7 7 5 5
24 33 34 37 40 39 36 33 31 27 26 24 22 21 19 17 16 13 12 10 8 7 5 4 3 3 3 3 3 3 3 1 1 1 2 3 8 6 7 6 5 5 6
27 28 33 38 41 41 37 35 32 29 24 22 23 22 21 19 17 15 13 11 9 8 6 4 3 2 2 2 2 2 2 2 2 1 1 3 5 6 9 6 5 6 7
31 30 35 38 40 42 40 38 35 30 25 25 25 25 24 22 19 17 15 13 11 9 7 5 3 2 1 1 1 1 1 1 2 2 2 6 8 4 9 7 7 9 8
Wind_Direction
173 167 159 154 151 167 176 178 175 169 141 124 112 100 85 70 67 67 72 70 67 63 61 55 47 39 32 20 8 4 2 357 355 14 50 70 91 89 64 60 75 37 0
165 166 160 157 164 179 172 170 167 159 151 125 111 97 84 80 81 78 73 71 70 66 60 54 48 40 35 31 26 21 15 7 0 357 11 31 33 35 24 297 142 11 3
161 162 165 165 174 179 169 168 163 153 135 121 112 101 94 89 87 85 83 78 74 71 67 63 60 54 47 42 38 35 31 31 24 10 23 66 65 311 293 279 292 315 359
157 161 165 168 180 174 166 166 159 143 132 123 116 105 97 89 85 83 81 80 76 73 70 64 59 54 49 46 44 42 40 38 37 42 62 88 63 281 284 296 289 292 301
155 160 167 170 183 166 163 162 152 141 135 127 120 110 100 94 92 87 83 80 76 72 69 66 62 57 51 46 44 44 44 46 51 56 67 94 82 325 289 286 275 278 286
159 159 165 174 179 164 163 159 153 143 136 131 121 108 101 98 94 91 86 81 75 70 64 60 58 55 51 47 43 42 43 48 57 62 73 85 64 303 294 295 282 272 267
159 161 166 179 175 166 164 158 153 144 137 133 119 107 104 102 100 94 85 78 73 67 61 56 54 51 50 47 43 43 45 49 60 64 70 78 1 315 311 313 299 288 284
159 160 175 184 174 168 166 159 155 146 141 133 119 114 111 108 101 89 81 78 73 65 57 49 44 40 40 41 37 37 40 43 58 66 66 47 351 324 316 324 306 291 296
161 162 175 178 172 169 167 161 157 151 142 133 124 121 119 115 100 89 85 77 69 61 54 48 43 42 41 43 40 39 42 47 57 63 57 39 13 13 11 18 12 351 342
168 167 179 173 171 172 169 166 162 154 146 137 131 128 125 117 102 95 85 75 65 58 55 50 45 43 41 43 42 42 44 51 59 60 53 59 43 43 43 45 49 51 39
174 177 178 173 171 173 173 168 167 161 151 143 142 138 135 125 111 96 80 67 58 55 55 51 45 45 45 47 46 48 51 58 63 65 61 70 53 45 49 57 54 54 46
180 184 180 180 178 178 176 172 171 168 161 154 155 148 144 135 127 102 81 62 56 55 53 50 47 49 52 56 54 57 63 67 70 68 85 101 95 64 59 64 54 50 50
184 184 183 184 184 184 181 178 176 174 169 164 164 155 151 143 128 100 78 62 52 54 53 52 50 55 60 67 67 67 71 73 72 68 93 77 70 59 52 54 48 71 68
189 189 187 187 186 186 185 181 180 176 174 171 168 162 156 153 138 118 92 79 61 59 61 59 60 62 68 73 76 76 76 76 75 76 70 81 94 74 73 72 65 55 61
196 191 192 189 189 188 186 186 182 179 178 176 172 170 166 163 150 132 107 85 67 63 66 67 69 69 72 78 79 81 81 76 74 77 64 70 73 86 77 61 66 70 61
199 194 193 192 192 191 190 188 186 184 182 183 179 178 173 170 157 145 121 95 80 75 76 77 76 73 74 88 86 85 80 76 74 73 70 54 52 45 40 68 57 56 57
207 195 197 196 196 195 193 191 190 189 188 188 189 185 179 176 165 153 136 112 104 94 89 86 80 74 78 94 95 94 91 82 73 68 66 63 49 42 33 28 22 31 60
210 199 200 200 198 197 196 196 195 195 195 194 194 193 186 180 173 162 148 137 124 106 93 89 85 77 85 99 101 100 97 88 78 69 64 60 56 47 38 32 29 26 27
212 205 203 203 202 199 198 199 200 200 200 198 201 198 193 186 180 169 162 150 134 114 103 96 88 83 89 100 109 109 110 93 73 67 62 51 41 33 28 23 23 24 25
216 209 209 205 203 201 201 201 203 204 205 201 200 200 198 192 187 178 172 161 148 127 116 106 97 88 95 101 113 117 112 91 63 50 60 45 36 22 21 23 22 21 23
219 213 209 209 205 205 204 204 205 207 206 205 203 200 199 197 191 184 181 170 159 146 133 119 108 96 99 103 103 108 92 45 19 6 49 30 10 9 15 16 17 17 13
226 214 212 213 211 209 209 210 212 211 208 208 206 202 200 198 194 190 187 178 169 159 147 130 119 109 104 98 128 146 160 326 316 353 7 13 18 16 20 358 0 12 14
226 222 215 214 213 214 213 212 212 212 210 207 206 204 202 199 196 192 189 185 178 170 161 144 132 123 116 105 99 139 110 141 351 323 331 355 6 9 4 13 2 6 6
239 226 223 219 215 217 215 215 215 215 210 212 212 206 202 200 197 194 191 189 183 178 171 160 143 128 112 103 91 90 105 113 102 177 327 317 347 352 352 348 357 343 336
224 225 228 221 218 215 220 215 214 213 216 218 209 206 204 200 197 194 194 191 188 185 183 180 164 139 111 87 83 78 66 64 72 86 290 316 351 327 343 349 341 334 322
218 219 223 225 219 217 217 215 214 213 213 213 210 206 203 200 198 196 194 192 191 190 193 195 190 181 153 49 34 43 46 65 335 359 321 321 322 307 329 319 317 326 312